Wind_Speed
63 62 60 60 60 56 54 53 48 44 46 48 47 44 42 42 39 36 35 33 33 36 35 33 33 34 34 34 34 33 34 35 36 35 34 34 32 32 31 31 31 32 34 35 36 36 36 36 36 36 37 37 38 39 39 39 39 39 39 39 39 39 40
66 67 65 63 63 61 58 54 50 51 53 51 48 45 42 40 38 37 37 37 35 35 36 37 36 36 37 37 35 35 35 37 39 38 38 36 35 34 34 34 34 34 35 36 37 37 37 37 37 37 38 38 39 39 40 40 40 40 41 41 41 41 41
71 71 69 66 65 63 60 56 55 57 56 51 47 44 41 39 38 37 39 39 37 35 38 40 39 39 39 38 37 37 37 39 40 40 39 38 38 37 37 37 37 37 37 38 38 39 39 39 39 39 40 40 40 41 41 41 41 42 43 43 44 44 44
76 76 73 67 64 64 62 60 60 60 58 53 50 47 43 41 38 37 39 39 37 37 40 42 41 40 40 40 39 39 40 41 42 41 41 41 40 40 41 41 41 40 40 40 41 42 41 41 41 41 42 42 42 43 43 43 43 44 45 45 46 47 47
79 77 73 66 64 67 67 65 63 62 60 56 54 51 48 45 41 39 40 39 38 40 43 43 43 42 42 42 41 41 42 43 44 44 44 43 43 43 44 45 45 44 43 44 44 44 44 43 43 43 43 44 44 45 45 45 45 46 47 47 48 48 48
79 75 72 68 68 72 72 68 65 64 63 61 58 55 52 49 46 44 42 41 41 44 46 45 44 44 45 44 43 43 44 45 46 46 46 45 46 46 47 48 47 46 46 47 47 47 46 46 45 45 46 46 46 46 46 47 47 48 49 49 49 48 48
78 75 75 73 73 75 75 72 68 66 66 64 61 57 54 52 50 48 47 44 43 45 46 46 45 45 45 45 44 44 45 46 47 48 47 48 48 49 50 50 49 48 49 50 50 49 49 48 48 48 48 48 48 48 48 49 49 49 50 49 49 48 48
79 79 79 78 77 78 77 73 68 66 66 63 61 58 57 56 54 52 50 45 42 45 47 46 45 45 44 45 45 46 47 48 49 49 49 49 50 51 51 51 51 50 51 52 52 51 50 49 49 50 50 50 50 49 49 50 50 50 50 49 48 48 48
83 82 82 81 78 77 75 71 67 66 65 64 63 62 61 60 57 54 51 46 43 46 48 47 46 47 47 47 48 48 49 50 50 50 50 51 51 52 53 53 52 52 53 53 53 53 52 51 51 50 51 51 50 50 50 50 50 50 49 48 48 49 48
84 82 80 77 74 73 73 70 68 67 67 68 67 65 64 62 58 56 53 48 47 49 50 50 51 51 50 50 50 50 50 51 51 51 51 52 52 52 54 54 54 54 55 55 56 56 55 54 52 52 52 52 51 50 51 51 50 49 49 49 50 49 48
84 80 77 75 74 75 75 72 70 70 70 70 70 70 67 63 60 59 56 53 53 52 52 52 54 54 52 51 51 51 51 52 51 51 53 53 53 53 54 56 56 56 56 57 58 59 58 56 54 54 54 53 53 53 52 52 51 51 51 51 52 51 50
84 81 79 79 79 78 77 75 74 73 74 74 75 73 69 65 64 62 58 56 55 53 53 54 55 55 54 53 53 53 52 52 51 53 54 54 54 54 55 57 57 58 59 60 60 60 59 57 57 57 57 56 56 56 55 54 54 53 53 54 54 53 52
84 83 82 82 82 81 80 78 77 77 76 77 76 74 70 68 66 62 59 60 58 55 55 56 55 55 55 54 54 54 52 52 53 55 56 55 55 55 56 58 60 61 62 62 63 62 60 59 59 59 59 59 59 59 58 57 57 56 56 56 56 56 55
85 84 83 84 84 83 82 80 80 79 78 78 78 76 73 70 68 64 62 63 61 58 57 56 55 56 56 55 55 54 53 54 56 57 58 57 57 57 59 61 62 63 64 65 65 64 62 61 61 60 60 61 62 61 61 61 60 59 59 59 58 58 58
86 86 85 84 84 84 82 81 80 80 80 79 79 77 74 72 69 66 66 65 61 59 58 57 57 57 56 56 55 55 55 56 59 60 60 59 59 59 61 63 65 66 66 67 67 67 65 64 63 62 62 63 64 64 64 63 63 62 62 61 61 61 60
85 84 85 84 84 85 84 82 81 81 80 79 78 76 75 73 71 68 67 65 61 58 59 59 59 58 58 57 57 57 57 59 61 62 61 60 60 62 64 66 67 68 68 68 69 69 68 67 65 64 65 65 66 67 66 66 65 64 63 62 62 61 61
83 82 84 84 86 88 87 83 81 80 80 79 78 77 75 74 72 70 67 63 60 60 61 61 60 60 59 60 60 60 61 62 63 63 63 62 63 65 67 68 68 70 70 70 71 71 71 70 68 67 67 68 68 68 67 67 66 65 64 63 62 62 61
83 82 84 85 89 91 87 81 79 80 80 79 79 78 76 74 72 70 66 63 62 62 62 62 62 62 62 62 63 63 64 65 66 65 65 65 66 68 69 69 70 71 72 72 73 73 73 72 70 69 68 68 68 67 66 66 65 64 63 62 62 62 61
83 83 85 87 90 89 84 80 80 81 81 81 80 79 77 75 73 70 67 65 64 63 63 63 63 64 65 64 65 66 67 68 68 68 68 68 69 70 70 70 71 71 72 73 74 74 74 73 71 69 68 66 65 64 64 64 63 63 62 62 62 61 60
85 85 85 87 88 85 82 81 83 84 83 82 81 80 77 74 72 70 68 66 64 64 63 64 64 65 66 65 66 68 69 69 69 68 69 69 70 70 70 70 70 70 71 72 73 73 73 73 71 68 66 64 63 62 62 62 62 62 62 62 62 62 62
87 86 86 87 86 84 82 83 84 85 84 83 82 80 77 75 73 71 69 66 65 64 63 63 64 65 65 65 66 68 69 69 69 68 68 69 70 70 69 69 69 68 69 70 71 72 72 72 70 68 66 64 63 63 62 62 62 63 63 64 64 64 63
88 87 86 87 86 84 82 83 84 82 82 83 81 79 76 75 73 71 68 66 64 63 63 63 63 64 64 65 67 69 69 69 68 68 68 69 70 69 68 68 67 67 67 68 69 70 71 71 70 69 67 66 65 65 64 64 64 65 65 66 66 65 65
89 88 87 87 87 84 83 83 83 81 81 81 79 77 76 75 72 70 68 67 66 65 65 66 66 67 67 68 70 71 70 69 69 68 69 69 69 68 67 66 65 66 67 68 68 69 70 70 70 69 68 67 66 67 67 66 67 67 67 67 67 66 65
90 88 87 87 87 86 85 84 83 81 81 80 77 76 76 73 70 69 69 68 67 67 67 67 68 69 70 70 71 70 70 69 69 68 68 67 67 67 66 65 66 67 68 68 68 69 69 70 71 70 69 68 69 68 68 68 68 68 69 69 68 67 66
89 89 88 87 87 87 85 85 83 81 80 78 75 74 73 71 69 69 69 68 67 66 67 68 68 70 71 70 69 70 70 70 69 68 67 67 67 67 65 66 67 68 69 70 70 70 71 72 72 71 71 72 72 71 70 69 69 69 69 69 69 67 67
86 87 88 87 87 88 87 85 84 81 78 76 74 73 72 71 70 70 69 68 67 67 68 69 69 71 70 68 69 71 71 70 70 69 68 67 67 67 66 67 68 69 70 72 73 73 73 73 73 73 73 73 73 72 71 71 70 69 69 70 69 68 67
81 82 86 88 87 86 87 85 83 79 76 74 74 73 74 74 73 71 70 69 68 69 70 70 71 71 70 70 71 72 72 72 73 72 70 68 67 68 69 69 71 72 73 74 76 76 76 75 74 73 73 72 72 73 73 72 71 69 69 68 67 65 65
77 77 82 87 87 86 86 84 82 80 78 75 74 75 76 77 75 73 72 71 70 70 70 71 72 73 73 74 74 73 73 74 74 73 72 71 70 70 71 72 73 74 74 75 76 77 77 76 75 74 74 74 75 74 74 73 71 69 67 65 64 64 65
70 71 74 79 82 84 85 84 81 79 78 76 77 77 77 77 77 75 74 73 73 72 72 73 75 75 75 75 74 74 75 75 75 74 74 74 73 73 73 74 75 76 76 76 78 79 79 78 77 76 76 77 77 76 75 73 71 68 67 66 66 66 65
63 66 70 73 75 76 79 79 79 80 80 78 79 80 78 77 77 76 75 75 75 75 75 76 77 76 75 75 76 76 77 77 76 76 75 75 75 75 75 76 77 77 78 78 79 80 80 79 79 78 78 78 78 77 75 72 69 68 68 69 69 68 67
61 63 66 70 72 73 72 69 68 70 74 76 79 80 80 80 78 77 76 77 76 77 77 78 78 76 75 76 78 79 79 79 78 77 76 76 77 77 77 78 78 78 79 80 80 80 80 79 80 80 80 80 78 76 73 71 70 71 71 71 71 69 67
61 60 61 64 69 72 72 70 65 61 61 65 71 74 76 78 78 77 78 78 77 78 78 78 78 76 74 75 78 80 80 79 78 76 75 75 75 75 75 74 75 76 78 79 80 80 80 80 81 81 80 79 77 75 74 73 73 74 73 73 71 70 68
62 56 53 56 62 68 71 70 67 65 65 65 67 70 72 73 74 75 77 78 78 79 79 79 79 78 77 78 81 82 81 80 78 76 75 74 74 73 73 73 73 75 76 78 78 79 80 81 80 79 77 76 76 75 74 74 74 73 73 72 70 69 69
64 57 52 52 57 62 67 68 63 62 66 68 68 70 73 74 74 75 76 77 78 79 80 80 80 80 80 81 82 82 82 81 80 78 77 76 76 77 76 76 76 76 77 78 78 79 80 79 78 76 75 74 75 75 74 73 73 73 73 72 71 71 72
70 65 60 59 60 59 62 66 64 59 60 63 64 66 70 72 74 75 75 76 77 78 79 79 80 80 80 80 80 79 78 78 77 77 77 77 78 78 78 77 77 77 78 78 79 79 79 77 76 75 74 73 73 74 74 74 73 74 74 74 73 72 72
74 72 66 63 64 63 61 63 64 63 62 63 64 65 67 70 72 73 74 75 76 77 77 77 77 77 78 79 79 78 78 77 77 78 78 77 77 77 77 77 77 77 77 78 78 78 77 76 75 74 73 73 73 74 75 75 76 76 76 75 74 72 70
67 68 68 67 67 68 67 65 65 66 67 67 67 67 68 69 71 72 73 74 74 73 73 74 74 74 76 77 77 78 78 78 78 78 77 77 76 76 76 76 76 77 76 76 77 76 76 75 74 73 74 76 77 76 76 77 78 78 78 77 76 76 76
Wind_Direction
242 242 240 239 241 240 240 242 242 241 241 240 240 239 239 242 244 245 248 248 247 255 260 259 258 259 260 261 262 266 270 271 272 273 273 274 276 277 278 280 282 283 284 286 287 289 290 291 292 293 294 296 297 299 300 301 303 306 308 309 309 310 311
241 241 240 239 241 241 241 241 240 239 241 240 240 241 241 242 244 244 247 248 247 250 256 258 258 259 261 262 264 267 269 271 273 274 275 276 277 277 278 279 280 281 283 284 286 288 289 291 292 293 294 294 296 297 299 300 303 305 307 308 308 309 309
239 240 239 239 241 243 243 242 241 244 246 245 244 245 244 244 244 244 245 248 249 249 252 255 257 259 261 264 266 267 269 271 273 276 278 278 279 279 279 279 279 280 281 282 283 284 286 287 289 290 292 293 295 297 298 300 303 305 306 306 306 307 307
240 240 241 240 242 244 244 243 244 247 249 248 247 247 246 245 244 244 245 248 251 251 252 254 257 258 261 263 265 266 267 270 272 274 276 278 279 280 280 280 280 280 281 281 281 281 283 284 286 289 291 292 295 297 298 300 303 304 305 304 304 305 307
240 242 243 242 242 244 244 243 243 245 247 247 246 246 245 245 244 242 243 245 249 250 251 253 255 257 259 260 261 262 264 267 269 271 273 275 276 278 279 280 280 281 281 281 281 282 283 285 287 289 291 293 294 296 298 300 302 302 303 303 303 306 308
239 241 243 241 240 242 242 241 241 242 243 244 244 245 245 244 243 241 240 240 242 245 248 250 252 253 254 256 258 260 262 265 267 269 270 272 273 275 276 278 279 281 282 282 283 284 285 287 289 290 291 292 294 295 297 299 300 300 301 301 304 307 309
238 239 240 239 239 241 241 241 241 242 244 245 246 248 247 246 246 244 243 241 241 244 248 249 251 252 254 256 258 260 262 264 266 268 270 271 272 273 275 277 279 280 281 282 283 284 286 287 288 290 290 291 293 295 296 297 298 298 299 302 305 307 308
237 237 238 238 238 240 242 242 242 244 247 249 249 250 248 248 249 248 248 247 245 246 249 251 253 254 255 257 258 259 261 262 264 266 268 270 271 273 275 276 278 279 280 281 282 283 285 286 287 288 288 289 291 293 294 295 296 297 300 302 304 305 306
235 236 237 238 239 242 244 245 245 246 248 249 249 248 248 249 250 250 251 251 249 249 251 253 254 254 254 254 255 256 258 260 262 264 266 267 269 272 274 276 277 278 279 280 282 283 283 284 285 285 286 288 290 291 292 293 295 297 299 301 301 302 304
236 237 239 241 242 244 246 246 246 246 247 248 248 248 248 248 249 249 249 248 246 246 248 250 251 252 252 252 253 255 257 259 261 263 265 266 268 271 273 275 276 278 279 280 281 282 282 283 284 285 286 288 289 291 291 292 294 297 298 299 299 301 303
235 236 238 240 240 241 242 243 243 243 244 245 246 246 246 246 247 247 246 245 243 244 245 248 250 251 252 253 254 255 257 259 261 263 265 267 269 270 272 274 276 277 278 279 279 280 282 284 285 286 287 289 290 291 291 293 295 296 297 297 298 301 303
233 234 234 236 237 238 239 240 240 241 241 242 244 245 245 244 245 245 246 246 245 245 245 247 249 251 253 254 256 257 259 261 263 265 265 267 268 270 272 273 275 276 276 276 277 279 281 284 286 287 288 290 291 291 292 293 295 296 296 297 299 301 302
231 232 233 235 236 237 238 238 239 239 241 242 244 245 245 245 245 246 246 246 246 245 246 247 249 252 254 256 258 260 262 264 265 265 266 267 268 269 271 273 274 275 275 276 277 279 281 283 285 286 288 289 290 291 292 293 294 295 296 298 299 299 300
230 231 232 234 236 238 238 239 239 240 241 242 244 245 245 245 246 245 245 246 247 246 248 249 251 253 255 257 259 261 263 264 265 265 266 267 268 270 271 272 273 274 275 276 277 279 281 282 284 286 287 288 289 290 291 292 293 295 296 297 297 297 298
229 230 231 233 235 237 238 239 240 241 242 243 244 245 246 247 247 246 246 247 248 249 251 253 254 255 256 258 259 260 262 262 263 264 265 267 268 270 271 271 272 273 275 276 278 280 281 282 283 285 286 287 288 289 290 291 292 293 294 295 295 295 297
228 230 232 233 234 236 237 238 240 242 243 245 246 247 248 248 248 248 248 249 251 252 253 254 255 256 257 258 259 260 261 261 262 263 265 267 268 269 269 270 271 272 274 275 277 279 280 282 283 284 285 285 286 287 289 289 290 291 292 293 293 294 295
226 229 232 233 234 235 235 236 238 241 243 245 246 247 248 249 249 250 250 252 252 253 254 255 257 258 259 260 261 261 262 262 263 264 265 266 266 267 268 269 270 272 273 275 276 278 280 281 282 283 283 284 285 286 287 288 289 290 291 292 292 292 293
225 227 230 232 233 235 235 235 237 239 241 243 245 246 247 248 250 251 251 252 252 253 254 256 258 259 260 260 261 262 262 263 263 264 265 265 265 265 266 268 270 272 274 275 276 278 279 280 281 281 282 283 284 285 287 288 289 290 291 291 291 292 292
225 226 228 231 233 235 235 235 236 237 239 241 242 244 245 247 248 250 250 251 251 253 254 256 257 258 259 260 261 261 262 262 263 264 264 264 265 265 266 268 269 271 273 275 276 277 278 279 279 280 281 282 283 285 286 287 288 289 290 291 291 292 292
224 225 228 231 233 235 235 235 236 237 238 239 241 242 243 245 246 248 248 249 250 252 253 254 256 257 258 259 260 260 261 262 263 263 264 265 265 266 267 268 269 270 272 273 275 276 277 278 279 280 281 282 283 284 285 287 288 289 291 291 292 292 291
224 225 227 229 232 233 234 235 236 237 238 240 241 242 243 244 245 246 247 248 249 250 252 253 254 256 257 258 259 260 260 261 262 262 263 264 265 265 266 267 268 269 270 271 273 275 276 278 280 281 282 284 285 286 287 288 289 290 291 291 291 290 289
225 225 226 228 230 231 233 235 236 238 239 240 241 243 244 244 245 246 247 248 248 249 249 250 252 253 254 255 255 256 257 258 259 260 261 262 263 264 265 266 267 269 270 271 272 274 276 278 280 281 283 284 286 287 287 288 289 289 289 288 288 287 287
225 226 226 228 230 230 232 234 235 237 239 240 242 243 244 244 245 246 247 247 247 248 248 248 249 249 250 251 252 254 255 256 257 258 259 261 262 264 265 266 267 268 269 271 272 274 276 278 279 280 282 283 285 285 286 286 287 287 286 286 286 286 286
226 226 227 228 230 230 232 233 235 236 237 239 241 242 244 245 246 246 247 248 248 249 249 250 250 251 252 253 254 255 256 256 257 257 259 260 262 263 265 266 267 267 269 270 272 273 275 276 278 279 281 282 282 282 283 283 284 284 284 284 284 284 285
227 227 227 228 230 230 231 233 234 235 236 238 240 242 244 245 245 246 247 248 249 250 250 251 251 252 253 254 256 256 256 257 257 258 259 260 261 263 264 265 266 268 269 271 272 273 274 275 276 278 279 280 280 280 281 281 282 283 283 283 284 284 283
228 229 228 229 230 231 232 233 234 234 236 238 240 242 243 244 244 245 246 247 248 249 250 251 251 253 254 255 256 256 257 258 258 259 259 261 263 265 266 266 267 269 270 271 272 273 274 275 276 278 279 280 280 280 280 281 282 283 284 284 284 284 284
228 230 230 229 231 233 233 234 234 234 235 237 239 241 242 243 243 243 244 246 247 248 250 251 252 253 254 254 255 256 257 258 259 260 261 262 263 265 266 267 268 270 271 273 274 275 276 277 278 279 280 281 281 281 282 283 284 285 286 286 285 285 286
226 230 231 231 231 233 234 235 235 235 235 236 237 239 241 242 243 243 243 245 246 247 249 251 252 253 253 254 255 257 259 260 262 263 264 264 265 265 267 269 270 271 273 274 276 277 278 279 280 281 281 281 282 283 284 285 286 287 286 286 286 287 288
225 228 231 231 231 233 235 236 236 237 236 237 237 238 240 242 244 244 244 245 246 246 248 250 251 253 254 256 258 259 260 262 263 265 266 267 268 269 271 272 273 274 275 276 277 278 279 280 281 282 282 283 284 285 286 287 287 287 287 287 288 289 288
223 227 230 230 230 232 234 237 239 239 238 238 238 239 239 241 243 245 246 246 247 248 248 250 252 253 255 257 259 260 261 262 264 265 267 269 271 272 273 274 274 275 276 276 277 278 279 281 282 283 283 285 286 287 287 288 288 287 287 287 288 288 288
220 226 229 230 231 231 231 233 237 239 239 239 240 239 239 240 242 244 246 247 248 249 250 252 253 255 257 258 259 259 260 261 263 265 267 268 270 271 271 272 273 274 275 276 277 278 280 281 282 284 285 286 287 287 287 287 288 288 288 289 290 292 293
217 223 228 231 231 231 230 229 230 232 234 236 239 239 239 240 240 242 245 246 248 249 251 252 254 255 256 258 258 259 260 262 263 265 267 268 269 270 271 272 273 274 276 277 279 280 281 282 284 285 286 287 287 288 289 290 291 293 294 296 296 297 297
213 217 225 231 232 232 231 230 230 231 232 234 238 240 241 241 242 243 245 247 248 249 251 252 254 254 254 256 258 260 261 263 265 265 266 267 268 270 271 272 273 274 276 277 279 280 281 283 284 285 286 287 288 290 291 293 294 295 297 297 297 295 295
210 211 217 224 229 232 232 229 229 232 235 236 239 241 243 244 245 245 246 248 249 251 252 253 254 255 255 256 258 260 261 263 264 264 264 265 266 268 270 271 272 274 275 276 277 279 280 282 283 285 286 287 289 290 292 293 293 294 295 295 293 292 292
211 211 213 218 223 228 231 229 227 230 235 237 238 241 243 244 246 246 247 248 249 250 251 253 254 255 255 256 258 260 262 263 264 265 266 267 268 270 271 273 274 274 275 276 278 279 281 282 283 284 285 286 288 289 290 290 290 291 291 291 290 289 288
218 217 217 219 223 227 231 232 231 232 235 238 240 242 243 245 246 247 248 249 250 251 252 253 254 255 256 257 259 260 262 263 265 266 268 269 270 271 273 274 274 275 276 277 278 279 281 282 282 283 284 285 286 287 287 287 287 288 288 288 287 286 285
226 227 226 226 228 232 234 236 236 237 241 244 246 247 247 247 247 248 248 249 250 251 252 253 254 255 256 257 259 260 261 263 265 267 269 270 271 271 273 273 274 275 276 277 278 279 280 280 280 281 282 284 285 285 285 285 286 287 288 288 288 287 287
Height
10900 10903 10906 10906 10907 10912 10915 10917 10925 10931 10930 10928 10931 10935 10939 10940 10944 10947 10949 10952 10951 10948 10948 10951 10951 10951 10951 10951 10952 10952 10951 10950 10949 10951 10953 10954 10955 10955 10955 10955 10955 10955 10954 10952 10951 10950 10949 10949 10948 10948 10947 10946 10944 10944 10943 10942 10941 10940 10939 10937 10936 10934 10932
10892 10892 10896 10898 10900 10905 10909 10914 10920 10920 10917 10920 10926 10931 10934 10937 10941 10944 10945 10946 10948 10947 10946 10945 10946 10947 10947 10947 10949 10949 10947 10945 10945 10946 10947 10949 10950 10950 10951 10951 10951 10951 10951 10950 10949 10947 10946 10945 10944 10944 10943 10942 10942 10941 10940 10939 10937 10936 10934 10933 10931 10930 10927
10881 10880 10885 10891 10896 10900 10905 10910 10911 10909 10911 10918 10923 10927 10931 10934 10937 10940 10940 10941 10943 10946 10944 10941 10942 10943 10943 10944 10945 10945 10944 10941 10941 10942 10942 10943 10944 10945 10946 10946 10947 10947 10947 10947 10946 10944 10943 10942 10941 10940 10939 10939 10938 10938 10936 10935 10933 10932 10930 10928 10926 10924 10922
10871 10871 10878 10889 10894 10896 10899 10903 10903 10903 10907 10914 10918 10922 10926 10929 10932 10935 10936 10937 10940 10942 10940 10938 10938 10939 10940 10941 10941 10941 10940 10938 10938 10938 10938 10939 10940 10940 10940 10941 10941 10942 10943 10942 10941 10940 10939 10938 10938 10937 10936 10935 10934 10933 10932 10931 10929 10927 10926 10924 10921 10919 10918
10862 10866 10876 10889 10891 10887 10889 10893 10896 10898 10901 10906 10911 10915 10920 10923 10927 10930 10932 10935 10937 10936 10935 10934 10935 10936 10936 10937 10937 10937 10937 10935 10935 10935 10935 10935 10936 10936 10935 10935 10935 10936 10936 10936 10935 10935 10934 10934 10934 10933 10932 10931 10930 10929 10928 10927 10925 10923 10921 10919 10917 10915 10914
10857 10866 10873 10880 10878 10874 10877 10883 10888 10891 10893 10897 10902 10908 10913 10917 10920 10923 10926 10930 10932 10930 10929 10930 10931 10932 10932 10932 10933 10933 10933 10932 10931 10931 10932 10932 10932 10931 10931 10930 10930 10931 10930 10929 10928 10928 10928 10928 10928 10928 10927 10926 10925 10924 10924 10922 10920 10919 10917 10914 10913 10912 10911
10855 10861 10862 10865 10865 10864 10867 10874 10881 10885 10886 10891 10897 10904 10909 10910 10913 10917 10919 10924 10927 10926 10925 10925 10926 10927 10928 10929 10930 10930 10929 10928 10927 10927 10927 10927 10927 10926 10926 10925 10925 10925 10924 10922 10922 10922 10923 10923 10922 10921 10921 10920 10919 10919 10919 10918 10916 10914 10912 10911 10910 10908 10907
10846 10849 10848 10852 10855 10856 10860 10870 10879 10882 10883 10889 10894 10898 10901 10902 10906 10911 10913 10919 10924 10922 10920 10921 10922 10924 10924 10925 10925 10925 10924 10923 10923 10923 10923 10922 10922 10921 10920 10919 10919 10919 10917 10917 10917 10917 10917 10917 10917 10916 10915 10915 10914 10914 10914 10913 10911 10910 10908 10908 10907 10905 10904
10832 10836 10837 10844 10851 10856 10861 10870 10877 10878 10880 10882 10885 10889 10892 10895 10901 10905 10908 10916 10920 10917 10915 10916 10918 10918 10919 10919 10919 10919 10919 10918 10918 10918 10918 10917 10917 10916 10914 10913 10913 10912 10911 10911 10911 10910 10911 10911 10911 10911 10910 10910 10910 10910 10909 10908 10907 10906 10905 10904 10903 10902 10900
10825 10832 10838 10846 10855 10857 10859 10865 10870 10871 10872 10873 10875 10879 10882 10888 10895 10898 10902 10909 10911 10909 10909 10910 10910 10910 10911 10912 10913 10913 10913 10913 10913 10913 10913 10913 10912 10911 10909 10908 10908 10907 10906 10905 10904 10903 10903 10904 10905 10905 10905 10905 10905 10905 10904 10903 10903 10902 10901 10900 10898 10897 10897
10821 10830 10838 10842 10845 10846 10848 10854 10859 10861 10862 10863 10864 10866 10873 10882 10887 10889 10895 10900 10901 10902 10903 10903 10902 10902 10904 10906 10907 10907 10907 10907 10908 10908 10908 10907 10907 10906 10905 10903 10902 10902 10901 10899 10897 10896 10896 10898 10899 10898 10898 10899 10899 10898 10898 10898 10898 10897 10896 10894 10893 10892 10892
10815 10823 10828 10828 10829 10833 10837 10843 10847 10850 10851 10851 10852 10856 10866 10874 10877 10881 10888 10891 10892 10896 10897 10896 10897 10896 10898 10900 10900 10901 10902 10903 10904 10903 10902 10902 10901 10901 10900 10897 10896 10896 10894 10892 10891 10890 10891 10893 10893 10892 10892 10892 10891 10891 10891 10892 10892 10891 10890 10888 10886 10886 10885
10808 10813 10817 10818 10819 10824 10828 10832 10836 10839 10841 10843 10845 10850 10859 10864 10868 10877 10882 10881 10884 10890 10890 10890 10892 10892 10893 10895 10895 10896 10898 10899 10898 10897 10896 10896 10896 10896 10894 10892 10890 10888 10887 10886 10885 10885 10887 10888 10888 10887 10886 10886 10885 10884 10885 10885 10886 10885 10884 10882 10880 10879 10878
10799 10803 10806 10809 10810 10814 10819 10824 10827 10830 10833 10836 10839 10844 10850 10855 10862 10870 10873 10873 10878 10883 10884 10886 10888 10888 10889 10890 10891 10893 10894 10893 10892 10890 10890 10891 10891 10890 10889 10886 10884 10881 10880 10879 10878 10880 10882 10883 10883 10882 10882 10880 10879 10879 10879 10879 10879 10879 10878 10876 10874 10871 10870
10789 10793 10797 10800 10802 10806 10812 10817 10820 10823 10826 10829 10832 10838 10843 10849 10856 10863 10865 10867 10874 10879 10880 10882 10882 10883 10885 10886 10887 10888 10888 10887 10886 10884 10884 10885 10886 10885 10882 10879 10877 10875 10874 10873 10872 10873 10876 10877 10878 10878 10877 10876 10874 10873 10874 10873 10873 10872 10871 10869 10867 10865 10864
10781 10787 10789 10793 10796 10797 10800 10807 10812 10815 10819 10823 10828 10833 10837 10842 10849 10854 10858 10863 10872 10875 10874 10875 10875 10877 10879 10880 10881 10882 10882 10881 10879 10878 10879 10881 10880 10878 10874 10872 10870 10869 10868 10868 10867 10868 10869 10871 10872 10873 10872 10871 10869 10869 10868 10868 10867 10866 10864 10862 10860 10859 10858
10776 10781 10781 10785 10785 10782 10787 10799 10807 10810 10814 10818 10822 10825 10830 10835 10840 10846 10853 10861 10868 10868 10866 10868 10870 10871 10872 10873 10874 10874 10874 10873 10873 10873 10874 10874 10873 10870 10867 10865 10864 10862 10862 10862 10862 10862 10863 10864 10866 10867 10866 10865 10864 10863 10862 10861 10860 10858 10857 10855 10854 10852 10852
10768 10770 10769 10771 10769 10769 10782 10798 10803 10804 10807 10810 10813 10816 10822 10828 10833 10840 10848 10855 10859 10859 10860 10862 10863 10863 10865 10865 10866 10866 10866 10866 10866 10866 10867 10867 10865 10863 10861 10859 10858 10857 10856 10856 10856 10856 10857 10857 10859 10860 10860 10859 10858 10857 10856 10854 10853 10851 10850 10849 10847 10846 10846
10757 10757 10756 10758 10758 10766 10782 10792 10793 10794 10797 10800 10803 10808 10814 10820 10826 10833 10841 10846 10850 10852 10854 10855 10856 10856 10857 10858 10858 10858 10858 10858 10859 10859 10859 10858 10856 10855 10854 10854 10853 10852 10852 10850 10850 10850 10849 10849 10851 10852 10853 10853 10852 10851 10850 10848 10846 10845 10843 10842 10840 10839 10839
10744 10746 10748 10749 10753 10764 10775 10781 10781 10783 10787 10791 10795 10800 10807 10814 10820 10826 10832 10837 10841 10844 10846 10848 10849 10848 10849 10850 10850 10849 10849 10850 10851 10850 10850 10849 10848 10848 10848 10848 10848 10847 10846 10845 10843 10842 10841 10841 10843 10844 10845 10845 10845 10844 10843 10842 10840 10838 10836 10835 10834 10833 10831
10733 10737 10740 10741 10746 10755 10763 10768 10770 10774 10779 10784 10787 10793 10800 10807 10812 10817 10823 10828 10833 10836 10838 10840 10840 10840 10841 10843 10841 10840 10840 10841 10841 10842 10842 10841 10840 10840 10840 10841 10841 10841 10840 10839 10837 10836 10835 10834 10834 10835 10836 10837 10837 10836 10836 10834 10833 10831 10829 10828 10827 10825 10823
10724 10728 10731 10733 10737 10746 10754 10757 10762 10769 10773 10775 10780 10788 10794 10800 10805 10810 10816 10820 10824 10827 10829 10830 10831 10831 10832 10832 10831 10830 10831 10832 10833 10834 10833 10832 10832 10832 10832 10833 10834 10834 10834 10832 10831 10829 10828 10827 10827 10827 10828 10829 10829 10828 10828 10827 10826 10824 10823 10821 10818 10816 10814
10714 10719 10724 10727 10731 10738 10744 10747 10753 10761 10763 10767 10776 10783 10785 10790 10798 10804 10807 10811 10814 10817 10818 10819 10820 10821 10822 10822 10821 10822 10823 10824 10824 10825 10824 10824 10823 10824 10825 10827 10828 10827 10826 10824 10824 10822 10821 10821 10820 10820 10821 10822 10822 10821 10821 10820 10819 10817 10816 10813 10810 10809 10807
10704 10710 10716 10720 10724 10729 10734 10738 10744 10751 10755 10760 10769 10774 10777 10784 10793 10796 10798 10801 10804 10807 10808 10809 10811 10812 10812 10813 10814 10814 10814 10814 10815 10816 10816 10816 10817 10818 10820 10821 10820 10818 10817 10817 10816 10815 10815 10814 10813 10814 10815 10815 10814 10814 10813 10813 10812 10810 10808 10805 10802 10802 10800
10695 10702 10709 10714 10716 10721 10725 10729 10735 10742 10748 10755 10763 10767 10772 10779 10784 10787 10789 10792 10795 10797 10797 10799 10801 10801 10802 10804 10805 10804 10804 10804 10806 10808 10809 10810 10811 10812 10814 10813 10811 10810 10809 10809 10808 10808 10807 10807 10807 10809 10809 10807 10806 10806 10805 10804 10803 10801 10799 10796 10794 10793 10791
10689 10695 10701 10706 10708 10712 10717 10721 10727 10736 10744 10751 10758 10762 10764 10768 10773 10777 10779 10782 10785 10786 10787 10789 10790 10791 10793 10796 10795 10793 10794 10796 10798 10800 10801 10803 10805 10805 10805 10805 10804 10803 10802 10800 10799 10799 10799 10800 10801 10802 10801 10799 10798 10798 10796 10795 10794 10792 10790 10787 10786 10784 10782
10683 10687 10692 10698 10701 10704 10710 10715 10723 10732 10739 10745 10751 10754 10755 10757 10761 10766 10770 10772 10775 10777 10777 10779 10780 10781 10784 10785 10784 10784 10786 10787 10789 10791 10794 10796 10797 10797 10797 10796 10795 10795 10794 10792 10791 10790 10790 10792 10793 10793 10792 10791 10789 10788 10787 10786 10785 10783 10780 10778 10776 10775 10774
10677 10680 10684 10689 10694 10697 10702 10709 10717 10725 10732 10738 10742 10744 10744 10746 10750 10756 10761 10763 10765 10767 10769 10769 10770 10771 10772 10773 10775 10777 10778 10778 10779 10781 10784 10786 10787 10788 10788 10787 10787 10786 10785 10784 10782 10780 10780 10781 10782 10783 10783 10781 10779 10778 10778 10776 10775 10773 10771 10769 10768 10767 10765
10671 10674 10678 10682 10687 10691 10695 10702 10710 10718 10724 10729 10732 10734 10736 10738 10742 10747 10752 10755 10757 10759 10760 10760 10760 10761 10763 10765 10768 10769 10769 10770 10771 10772 10774 10775 10777 10778 10778 10777 10776 10775 10774 10773 10772 10770 10769 10770 10772 10772 10772 10770 10769 10769 10768 10767 10765 10763 10761 10759 10759 10758 10756
10663 10666 10670 10676 10681 10685 10690 10697 10704 10709 10715 10719 10721 10724 10728 10732 10734 10738 10743 10746 10749 10750 10751 10751 10752 10754 10757 10760 10761 10760 10760 10762 10763 10764 10766 10767 10767 10768 10767 10766 10765 10764 10764 10763 10761 10760 10760 10761 10761 10762 10761 10760 10759 10759 10759 10758 10756 10754 10752 10750 10749 10747 10746
10655 10659 10664 10669 10675 10680 10687 10693 10697 10700 10704 10708 10711 10715 10720 10724 10727 10731 10734 10736 10739 10741 10742 10743 10745 10749 10752 10752 10751 10751 10752 10753 10755 10756 10758 10758 10758 10758 10757 10756 10755 10754 10753 10752 10751 10750 10750 10751 10751 10751 10750 10750 10749 10749 10749 10748 10746 10744 10741 10738 10737 10735 10733
10650 10654 10658 10662 10668 10673 10679 10685 10690 10693 10696 10699 10702 10706 10711 10715 10720 10723 10725 10727 10730 10732 10734 10735 10738 10742 10743 10740 10739 10740 10742 10743 10746 10748 10749 10749 10748 10747 10747 10746 10745 10744 10743 10742 10741 10740 10740 10741 10741 10740 10739 10738 10737 10737 10737 10736 10733 10730 10728 10725 10723 10723 10722
10645 10651 10655 10658 10662 10666 10671 10678 10684 10687 10689 10691 10694 10698 10702 10707 10712 10715 10717 10719 10721 10724 10726 10727 10730 10732 10733 10730 10729 10731 10734 10735 10738 10740 10740 10740 10739 10738 10738 10737 10736 10735 10733 10732 10732 10731 10731 10730 10731 10730 10729 10727 10726 10726 10725 10724 10721 10719 10718 10716 10715 10714 10713
10642 10646 10650 10654 10656 10659 10663 10670 10677 10681 10682 10684 10687 10691 10695 10699 10703 10707 10709 10711 10713 10715 10717 10718 10719 10721 10723 10722 10722 10723 10726 10727 10729 10730 10731 10731 10730 10729 10730 10730 10729 10728 10726 10725 10724 10723 10722 10721 10721 10720 10719 10717 10716 10716 10715 10714 10712 10711 10710 10709 10707 10706 10705
10634 10637 10642 10647 10651 10653 10657 10663 10670 10675 10675 10677 10680 10683 10687 10690 10694 10697 10700 10702 10703 10705 10707 10708 10710 10711 10712 10713 10714 10715 10717 10718 10719 10720 10721 10721 10721 10720 10721 10721 10720 10719 10718 10716 10714 10713 10713 10713 10712 10711 10710 10709 10708 10707 10707 10706 10705 10703 10702 10700 10700 10700 10698
10629 10633 10640 10644 10647 10650 10653 10657 10663 10666 10668 10670 10674 10677 10679 10682 10685 10688 10690 10692 10694 10696 10698 10700 10701 10702 10703 10704 10706 10707 10708 10709 10710 10710 10710 10711 10712 10712 10711 10711 10711 10710 10708 10706 10705 10704 10704 10704 10703 10703 10702 10701 10701 10700 10699 10698 10696 10695 10693 10691 10691 10692 10690
10633 10637 10641 10642 10643 10646 10649 10653 10657 10660 10663 10666 10670 10672 10672 10674 10676 10679 10681 10683 10685 10688 10690 10691 10692 10693 10694 10695 10696 10698 10699 10700 10700 10701 10701 10702 10703 10703 10703 10702 10701 10700 10698 10697 10695 10695 10696 10696 10695 10694 10693 10692 10692 10692 10690 10689 10686 10684 10683 10681 10680 10680 10678